Weather reports worldwide

Advertisment
Murcia/Alcantarilla, Spain (8429): temperature & dewpoint: 16.06.2018 15:00:00 - 22.06.2018 15:00:00 (CEST)Murcia/Alcantarilla, Spain (8429): wind speed: 16.06.2018 15:00:00 - 22.06.2018 15:00:00 (CEST)Murcia/Alcantarilla, Spain (8429): wind direction: 16.06.2018 15:00:00 - 22.06.2018 15:00:00 (CEST)Murcia/Alcantarilla, Spain (8429): reduced air pressure: 16.06.2018 15:00:00 - 22.06.2018 15:00:00 (CEST)Murcia/Alcantarilla, Spain (8429): visibility: 16.06.2018 15:00:00 - 22.06.2018 15:00:00 (CEST)
Date & Time tt [°C] td [°C] ff [km/h] ff [kn] dd ppp [hPa] vv [km]
22.06.2018 15:00:00 - - - - - - -
22.06.2018 14:00:00 32,3 13,0 11 6 ENE 1016,4 50
22.06.2018 13:00:00 - - - - - - -
22.06.2018 12:00:00 - - - - - - -
22.06.2018 11:00:00 28,2 12,5 5 3 N 1017,3 50
22.06.2018 10:00:00 - - - - - - -
22.06.2018 09:00:00 - - - - - - -
22.06.2018 08:00:00 21,0 14,6 4 2 SW 1018,0 40
22.06.2018 07:00:00 - - - - - - -
22.06.2018 06:00:00 - - - - - - -
22.06.2018 05:00:00 - - - - - - -
22.06.2018 04:00:00 - - - - - - -
22.06.2018 03:00:00 - - - - - - -
22.06.2018 02:00:00 - - - - - - -
22.06.2018 01:00:00 - - - - - - -
22.06.2018 00:00:00 - - - - - - -
21.06.2018 23:00:00 - - - - - - -
21.06.2018 22:00:00 - - - - - - -
21.06.2018 21:00:00 - - - - - - -
21.06.2018 20:00:00 30,9 10,3 15 8 SE 1016,3 50
21.06.2018 19:00:00 - - - - - - -
21.06.2018 18:00:00 - - - - - - -
21.06.2018 17:00:00 32,4 11,0 13 7 ESE 1016,4 50
21.06.2018 16:00:00 - - - - - - -
21.06.2018 15:00:00 - - - - - - -
21.06.2018 14:00:00 30,4 10,9 15 8 ENE 1017,6 50
21.06.2018 13:00:00 - - - - - - -
21.06.2018 12:00:00 - - - - - - -
21.06.2018 11:00:00 26,5 13,3 5 3 N 1018,2 50
21.06.2018 10:00:00 - - - - - - -
21.06.2018 09:00:00 - - - - - - -
21.06.2018 08:00:00 20,6 15,2 0 0 N 1018,3 50
21.06.2018 07:00:00 - - - - - - -
21.06.2018 06:00:00 - - - - - - -
21.06.2018 05:00:00 - - - - - - -
21.06.2018 04:00:00 - - - - - - -
21.06.2018 03:00:00 - - - - - - -
21.06.2018 02:00:00 - - - - - - -
21.06.2018 01:00:00 - - - - - - -
21.06.2018 00:00:00 - - - - - - -
20.06.2018 23:00:00 - - - - - - -
20.06.2018 22:00:00 - - - - - - -
20.06.2018 21:00:00 - - - - - - -
20.06.2018 20:00:00 28,8 13,1 21 11 ENE 1016,8 50
20.06.2018 19:00:00 - - - - - - -
20.06.2018 18:00:00 - - - - - - -
20.06.2018 17:00:00 31,2 11,1 15 8 E 1017,0 50
20.06.2018 16:00:00 - - - - - - -
20.06.2018 15:00:00 - - - - - - -
20.06.2018 14:00:00 30,2 11,7 13 7 E 1018,4 50
20.06.2018 13:00:00 - - - - - - -
20.06.2018 12:00:00 - - - - - - -
20.06.2018 11:00:00 26,0 13,5 8 4 N 1019,6 50
20.06.2018 10:00:00 - - - - - - -
20.06.2018 09:00:00 - - - - - - -
20.06.2018 08:00:00 20,3 14,2 0 0 N 1019,9 50
20.06.2018 07:00:00 - - - - - - -
20.06.2018 06:00:00 - - - - - - -
20.06.2018 05:00:00 - - - - - - -
20.06.2018 04:00:00 - - - - - - -
20.06.2018 03:00:00 - - - - - - -
20.06.2018 02:00:00 - - - - - - -
20.06.2018 01:00:00 - - - - - - -
20.06.2018 00:00:00 - - - - - - -
19.06.2018 23:00:00 - - - - - - -
19.06.2018 22:00:00 - - - - - - -
19.06.2018 21:00:00 - - - - - - -
19.06.2018 20:00:00 27,1 13,8 18 10 SE 1019,6 50
19.06.2018 19:00:00 - - - - - - -
19.06.2018 18:00:00 - - - - - - -
19.06.2018 17:00:00 30,1 13,0 13 7 SE 1019,8 50
19.06.2018 16:00:00 - - - - - - -
19.06.2018 15:00:00 - - - - - - -
19.06.2018 14:00:00 29,8 13,1 9 5 SE 1020,7 50
19.06.2018 13:00:00 - - - - - - -
19.06.2018 12:00:00 - - - - - - -
19.06.2018 11:00:00 27,2 12,8 9 5 N 1021,8 40
19.06.2018 10:00:00 - - - - - - -
19.06.2018 09:00:00 - - - - - - -
19.06.2018 08:00:00 20,2 15,2 0 0 N 1021,9 30
19.06.2018 07:00:00 - - - - - - -
19.06.2018 06:00:00 - - - - - - -
19.06.2018 05:00:00 - - - - - - -
19.06.2018 04:00:00 - - - - - - -
19.06.2018 03:00:00 - - - - - - -
19.06.2018 02:00:00 - - - - - - -
19.06.2018 01:00:00 - - - - - - -
19.06.2018 00:00:00 - - - - - - -
18.06.2018 23:00:00 - - - - - - -
18.06.2018 22:00:00 - - - - - - -
18.06.2018 21:00:00 - - - - - - -
18.06.2018 20:00:00 28,0 12,4 21 11 ESE 1018,4 60
18.06.2018 19:00:00 - - - - - - -
18.06.2018 18:00:00 - - - - - - -
18.06.2018 17:00:00 31,0 12,4 13 7 ESE 1018,5 60
18.06.2018 16:00:00 - - - - - - -
18.06.2018 15:00:00 - - - - - - -
18.06.2018 14:00:00 31,2 15,2 15 8 ESE 1019,7 50
18.06.2018 13:00:00 - - - - - - -
18.06.2018 12:00:00 - - - - - - -
18.06.2018 11:00:00 26,8 10,5 5 3 NNE 1020,4 50
18.06.2018 10:00:00 - - - - - - -
18.06.2018 09:00:00 - - - - - - -
18.06.2018 08:00:00 20,0 15,2 2 1 N 1020,5 40
18.06.2018 07:00:00 - - - - - - -
18.06.2018 06:00:00 - - - - - - -
18.06.2018 05:00:00 - - - - - - -
18.06.2018 04:00:00 - - - - - - -
18.06.2018 03:00:00 - - - - - - -
18.06.2018 02:00:00 - - - - - - -
18.06.2018 01:00:00 - - - - - - -
18.06.2018 00:00:00 - - - - - - -
17.06.2018 23:00:00 - - - - - - -
17.06.2018 22:00:00 - - - - - - -
17.06.2018 21:00:00 - - - - - - -
17.06.2018 20:00:00 28,9 11,5 18 10 SE 1018,5 50
17.06.2018 19:00:00 - - - - - - -
17.06.2018 18:00:00 - - - - - - -
17.06.2018 17:00:00 31,1 10,4 13 7 SE 1018,2 50
17.06.2018 16:00:00 - - - - - - -
17.06.2018 15:00:00 - - - - - - -
17.06.2018 14:00:00 30,4 10,9 15 8 ENE 1018,8 40
17.06.2018 13:00:00 - - - - - - -
17.06.2018 12:00:00 - - - - - - -
17.06.2018 11:00:00 27,4 9,3 9 5 NE 1019,1 50
17.06.2018 10:00:00 - - - - - - -
17.06.2018 09:00:00 - - - - - - -
17.06.2018 08:00:00 20,1 15,9 2 1 N 1018,6 50
17.06.2018 07:00:00 - - - - - - -
17.06.2018 06:00:00 - - - - - - -
17.06.2018 05:00:00 - - - - - - -
17.06.2018 04:00:00 - - - - - - -
17.06.2018 03:00:00 - - - - - - -
17.06.2018 02:00:00 - - - - - - -
17.06.2018 01:00:00 - - - - - - -
17.06.2018 00:00:00 - - - - - - -
16.06.2018 23:00:00 - - - - - - -
16.06.2018 22:00:00 - - - - - - -
16.06.2018 21:00:00 - - - - - - -
16.06.2018 20:00:00 28,2 11,3 18 10 ESE 1014,0 60
16.06.2018 19:00:00 - - - - - - -
16.06.2018 18:00:00 - - - - - - -
16.06.2018 17:00:00 31,4 9,6 21 11 SE 1013,6 50
16.06.2018 16:00:00 - - - - - - -
16.06.2018 15:00:00 - - - - - - -

tt = temperature
td = dewpoint
ff = wind speed
dd = wind direction
ppp = reduced air pressure
vv = visibility

Next stations